Regional Weather Roundup
Issued by NWS

Home | Current Version | Previous Version | Text Only | Print | Product List | Glossary On
Versions: 1 2 3 4 5 6 7 8 9 10 11 12 13 14 15 16 17 18 19 20 21 22 23 24 25 26 27 28 29 30 31 32 33 34 35 36 37 38 39 40 41 42 43 44 45 46 47 48 49 50
000
ASUS45 KABQ 100710
RWRNM
NEW MEXICO REGIONAL WEATHER ROUNDUP
NATIONAL WEATHER SERVICE ALBUQUERQUE NM
1200 AM MST WED FEB 10 2016

NOTE: "FAIR" MEANS FEW OR NO CLOUDS BELOW 12,000 FEET AGL WITH NO
       SIGNIFICANT WEATHER OR OBSTRUCTIONS TO VISION.

      THIS PRODUCT IS RELEASED AS TWO VERSIONS.  ONE VERSION NEAR
      THE TOP OF THE HOUR CONTAINING PRELIMINARY DATA FROM ALBUQUERQUE
      AND OTHER STATIONS.  A FINAL VERSION WITH ADDITIONAL DATA IS
      ISSUED ABOUT 10 MINUTES AFTER THE HOUR.

NMZ501-503-504-510>518-100800-
NORTHWEST PLATEAU/NORTHCENTRAL MOUNTAINS

CITY           SKY/WX    TMP DP  RH WIND       PRES   REMARKS
FARMINGTON     CLOUDY    30  22  72 E8        30.42R WCI  22
LOS ALAMOS     CLOUDY    41  13  32 N5        30.44S
SANTA FE       CLOUDY    30  18  60 N10       30.40F WCI  21
TAOS           CLOUDY    25  16  68 CALM      30.43F
ANGEL FIRE     FAIR       3   0  85 CALM      30.47F

$$
NMZ402-403-502-505>509-100800-
WESTCENTRAL MOUNTAINS/SOUTHWEST MOUNTAINS

CITY           SKY/WX    TMP DP  RH WIND       PRES   REMARKS
GALLUP         CLEAR     24  19  81 NE3       30.45R
GRANTS         CLEAR     18  11  72 NW7       30.46S WCI   9
SILVER CITY      N/A     37  19  48 N8        30.39F WCI  31

$$
NMZ407-409-411-412-100800-
SOUTHERN DESERTS

CITY           SKY/WX    TMP DP  RH WIND       PRES   REMARKS
LORDSBURG      FAIR      41  19  42 S8        30.34R
DEMING         CLEAR     35  15  44 N5        30.36S WCI  31
LAS CRUCES     CLEAR     36  17  46 NW6       30.36S WCI  31
HOLLOMAN AFB   CLOUDY    35  15  43 E3        30.34F
ALAMOGORDO     CLOUDY    36  16  44 NE7       30.36S WCI  30
T OR C         CLEAR     41  18  39 NW9       30.36F

$$
NMZ519>523-100800-
CENTRAL VALLEYS/CENTRAL HIGHLANDS

CITY           SKY/WX    TMP DP  RH WIND       PRES   REMARKS
ALBUQUERQUE    CLOUDY    42  21  43 NW6       30.39S
DOUBLE EAGLE   CLOUDY    31  16  52 NW10      30.40S WCI  23
MORIARTY ARPT  FAIR      21  16  81 W5        30.42S WCI  14
CLINES CORNERS CLOUDY    36  18  48 SW5       30.39F WCI  32
BELEN          FAIR      32  16  51 CALM      30.40R
SOCORRO        FAIR      39  17  40 N7        30.39S WCI  34

$$
NMZ524>526-539-540-100800-
SOUTHCENTRAL MOUNTAINS

CITY           SKY/WX    TMP DP  RH WIND       PRES   REMARKS
RUIDOSO          N/A     37  14  38 CALM      30.43F

$$
NMZ527>531-100800-
NORTHEAST HIGHLANDS/NORTHEAST PLAINS

CITY           SKY/WX    TMP DP  RH WIND       PRES   REMARKS
LAS VEGAS      CLOUDY    33  17  51 W6        30.40F WCI  28
RATON          CLOUDY    25  17  72 NE7       30.36F WCI  17
CLAYTON        CLOUDY    36  19  50 W8        30.31F WCI  30

$$
NMZ532>537-100800-
EASTCENTRAL PLAINS

CITY           SKY/WX    TMP DP  RH WIND       PRES   REMARKS
TUCUMCARI      CLOUDY    32  16  51 W7        30.33F WCI  26
CANNON AFB     CLOUDY    37  16  43 NW6       30.34F WCI  32
CLOVIS AIRPORT CLOUDY    32  18  55 NW8       30.34F WCI  25

$$
NMZ028-029-538-100800-
SOUTHEAST PLAINS

CITY           SKY/WX    TMP DP  RH WIND       PRES   REMARKS
ROSWELL        CLOUDY    35  21  56 W6        30.35F WCI  30
ARTESIA        CLOUDY    32  21  64 W8        30.35F WCI  25
CARLSBAD       CLOUDY    38  21  50 N6        30.34F WCI  33
HOBBS          CLOUDY    32  19  59 W7        30.37S WCI  26


$$



USA.gov is the U.S. government's official web portal to all federal, state and local government web resources and services.